Temp
0 -0 0 1 2 2 2 2 2 2 2 2 2 2 5 5 5 6 6 6 6 6 7 7 8 7 7 6 6 7 7 7 7 7 7 7 7 7 7 7 7 7 6 5
-1 -1 -0 1 1 1 1 1 1 1 1 1 1 2 4 6 4 5 6 6 6 6 6 7 7 6 6 7 7 6 6 6 6 6 6 6 6 6 6 6 7 6 6 6
-2 -2 -0 0 0 -0 -1 -1 -1 0 1 1 0 1 3 5 5 5 5 6 6 6 6 6 6 6 6 6 6 6 6 6 6 5 5 6 6 6 6 6 6 7 6 6
-3 -2 -1 -2 -2 -1 -2 -0 -0 -1 -1 -0 -1 1 1 2 5 5 5 4 5 5 5 6 6 5 5 5 5 5 5 5 5 5 5 5 6 6 6 6 6 6 6 6
-3 -2 -2 -2 -2 -2 -2 -1 -1 -1 -2 -2 -1 -2 1 2 5 5 5 3 5 5 5 4 4 4 4 4 4 4 5 5 5 5 5 5 5 5 5 5 5 5 5 5
-3 -3 -3 -2 -2 -2 -2 -2 -2 -2 -2 -2 -1 -2 2 1 3 4 4 5 4 3 4 4 3 3 3 3 3 3 3 3 4 4 4 4 3 3 4 4 4 4 4 4
-4 -4 -3 -3 -3 -3 -3 -3 -2 -2 -2 -1 -0 -1 1 0 2 3 2 3 3 3 3 2 2 1 1 1 1 2 2 2 3 3 3 3 3 3 3 3 3 3 3 3
-4 -4 -4 -4 -3 -3 -3 -3 -1 -1 -1 1 -2 -2 0 1 1 2 3 3 2 2 2 1 0 0 0 0 -0 -0 0 1 1 2 2 2 2 2 2 2 2 2 2 2
-3 -3 -3 -3 -3 -3 -3 -3 -2 -2 -3 -3 -1 -2 -1 0 1 1 1 1 1 1 0 0 -0 -0 -0 -0 -0 -0 -0 -0 -0 0 0 0 1 1 1 1 1 1 1 1
-3 -3 -4 -3 -4 -4 -3 -3 -3 -3 -2 -2 0 -1 1 0 0 0 0 0 0 0 0 -0 -0 -0 -1 -1 -1 -0 -0 -0 0 0 0 0 0 0 0 0 1 0 0 0
-3 -3 -4 -4 -4 -3 -4 -4 -3 -3 -2 -1 -0 1 0 1 1 1 0 -0 -0 -0 -1 -1 -2 -1 -1 -1 -1 -1 -1 -0 -0 0 1 1 1 1 1 1 1 1 0 0
-4 -4 -4 -4 -4 -4 -4 -3 -4 -2 -2 -3 -1 -0 0 -0 -0 -0 -0 -0 -0 -1 -1 -2 -2 -2 -2 -1 -1 -1 -1 -1 -0 -0 -0 -1 -0 -0 -1 -0 -0 0 -0 -0
-4 -5 -5 -5 -5 -5 -4 -4 -4 -3 -3 -3 -2 -1 -0 -1 -1 -1 -1 -1 -1 -1 -2 -2 -2 -2 -2 -2 -2 -2 -2 -2 -2 -2 -2 -2 -2 -1 -1 -1 -1 -1 -1 -1
-5 -5 -4 -2 -2 -3 -4 -4 -4 -4 -4 -3 -3 -2 -1 -1 -1 -1 -1 -1 -1 -1 -2 -2 -2 -2 -3 -3 -3 -3 -2 -2 -2 -2 -2 -2 -2 -2 -2 -2 -2 -2 -2 -2
-5 -5 -5 -3 -4 -3 -3 -4 -4 -5 -3 -4 -3 -3 -1 -0 -1 -1 -2 -2 -2 -2 -2 -2 -3 -3 -3 -3 -3 -3 -3 -3 -3 -3 -2 -3 -3 -2 -2 -2 -2 -2 -2 -2
-5 -5 -5 -5 -4 -5 -4 -4 -4 -3 -3 -4 -3 -3 -2 -2 -2 -3 -2 -2 -3 -3 -3 -3 -3 -3 -3 -4 -4 -4 -4 -3 -3 -3 -3 -3 -3 -3 -3 -3 -3 -3 -3 -3
-5 -5 -5 -5 -4 -6 -6 -4 -4 -4 -4 -3 -4 -2 -0 -2 -2 -2 -2 -2 -2 -3 -3 -3 -3 -3 -4 -4 -4 -4 -4 -4 -4 -4 -4 -3 -3 -3 -3 -3 -3 -3 -3 -3
-5 -6 -6 -6 -6 -6 -4 -3 -3 -3 -3 -3 -4 -2 -1 -2 -3 -3 -3 -3 -3 -3 -3 -3 -4 -4 -4 -4 -5 -4 -5 -5 -4 -4 -4 -4 -4 -4 -4 -4 -4 -4 -4 -4
-6 -6 -6 -6 -5 -4 -4 -3 -3 -3 -2 -2 -3 -1 -2 -2 -3 -3 -2 -3 -3 -4 -4 -4 -4 -5 -5 -5 -5 -5 -5 -5 -4 -4 -4 -5 -5 -5 -4 -5 -5 -5 -5 -5
-6 -6 -6 -6 -5 -5 -3 -2 -3 -4 -5 -2 -2 -2 -2 -2 -3 -1 -1 -2 -3 -3 -4 -5 -5 -5 -5 -5 -6 -5 -5 -5 -5 -5 -5 -5 -5 -5 -5 -5 -5 -5 -5 -5
-7 -6 -6 -7 -7 -7 -5 -4 -5 -6 -4 -2 -3 -2 -1 -2 -2 -2 -2 -2 -3 -4 -5 -5 -5 -5 -6 -6 -6 -6 -5 -5 -5 -6 -6 -6 -6 -6 -6 -6 -6 -6 -6 -6
-6 -8 -7 -7 -7 -6 -4 -5 -5 -4 -3 -3 -3 -3 -2 -2 -2 -3 -3 -3 -3 -4 -5 -5 -6 -6 -6 -6 -6 -6 -6 -6 -6 -7 -7 -7 -6 -6 -7 -7 -7 -7 -7 -7
-7 -6 -6 -6 -5 -5 -4 -5 -4 -4 -4 -4 -4 -4 -3 -3 -3 -3 -3 -3 -3 -4 -5 -6 -6 -6 -7 -7 -7 -7 -7 -7 -7 -7 -7 -8 -8 -8 -8 -8 -8 -9 -9 -9
-7 -6 -7 -7 -6 -5 -6 -5 -5 -4 -4 -4 -4 -4 -5 -5 -5 -4 -4 -4 -4 -5 -6 -6 -7 -7 -7 -7 -7 -8 -8 -8 -8 -9 -9 -9 -9 -9 -9 -10 -10 -10 -11 -11
-7 -7 -7 -7 -6 -6 -5 -5 -5 -5 -4 -4 -5 -5 -6 -6 -5 -5 -5 -5 -6 -7 -7 -7 -8 -8 -8 -8 -9 -9 -9 -9 -9 -10 -10 -10 -10 -11 -11 -12 -12 -12 -13 -13
-6 -6 -7 -7 -5 -6 -6 -6 -6 -6 -5 -6 -6 -6 -6 -7 -6 -7 -7 -7 -8 -8 -9 -9 -9 -9 -9 -9 -9 -10 -10 -10 -11 -11 -12 -12 -12 -12 -13 -13 -13 -14 -15 -15
Height
3129 3132 3127 3133 3138 3141 3144 3146 3147 3149 3153 3153 3153 3152 3153 3153 3152 3154 3156 3158 3159 3158 3157 3155 3154 3155 3155 3154 3154 3154 3154 3152 3151 3150 3150 3149 3150 3150 3150 3150 3150 3149 3148 3149
3125 3121 3129 3131 3135 3137 3139 3141 3144 3146 3147 3148 3147 3144 3144 3146 3146 3149 3151 3153 3152 3149 3148 3148 3148 3148 3149 3148 3147 3146 3145 3145 3144 3143 3142 3142 3142 3142 3143 3142 3141 3140 3139 3140
3118 3121 3124 3126 3128 3131 3133 3136 3141 3144 3144 3144 3141 3135 3137 3138 3141 3142 3144 3145 3143 3142 3143 3143 3142 3142 3142 3141 3140 3139 3138 3137 3137 3136 3135 3134 3134 3134 3134 3133 3132 3132 3130 3129
3117 3117 3120 3121 3123 3128 3131 3133 3138 3140 3143 3143 3140 3135 3132 3132 3135 3137 3138 3138 3136 3136 3137 3137 3136 3135 3134 3133 3132 3132 3132 3131 3130 3129 3128 3127 3126 3125 3125 3124 3123 3123 3122 3120
3110 3112 3116 3117 3120 3125 3128 3130 3135 3137 3139 3138 3138 3140 3123 3126 3124 3128 3130 3131 3131 3131 3131 3130 3130 3128 3127 3126 3126 3124 3124 3123 3122 3121 3120 3119 3118 3117 3117 3116 3116 3115 3114 3113
3107 3108 3111 3115 3119 3122 3125 3130 3134 3135 3137 3133 3132 3134 3115 3120 3123 3125 3127 3124 3124 3125 3126 3125 3124 3123 3122 3121 3120 3119 3118 3117 3116 3114 3113 3112 3111 3110 3109 3109 3108 3107 3107 3106
3101 3103 3107 3110 3114 3118 3120 3127 3130 3133 3132 3124 3123 3127 3110 3113 3115 3118 3120 3120 3120 3120 3119 3119 3118 3118 3117 3116 3115 3114 3113 3112 3111 3109 3107 3105 3103 3102 3101 3101 3100 3099 3098 3098
3094 3098 3097 3101 3105 3110 3113 3116 3117 3119 3117 3115 3120 3112 3105 3107 3112 3114 3114 3114 3114 3115 3114 3113 3113 3112 3111 3111 3110 3109 3107 3106 3105 3104 3103 3101 3098 3096 3094 3093 3092 3092 3090 3089
3087 3091 3091 3094 3100 3105 3108 3107 3116 3117 3115 3115 3109 3103 3101 3101 3104 3106 3107 3107 3108 3109 3108 3108 3107 3107 3106 3105 3105 3104 3102 3101 3100 3099 3098 3096 3093 3091 3088 3086 3084 3083 3082 3081
3081 3086 3086 3091 3095 3099 3101 3106 3109 3112 3109 3107 3097 3099 3091 3091 3095 3098 3099 3101 3102 3102 3102 3102 3102 3101 3101 3100 3099 3098 3097 3095 3094 3093 3091 3089 3087 3085 3083 3081 3079 3077 3075 3073
3077 3081 3083 3085 3082 3086 3092 3095 3099 3102 3101 3095 3090 3083 3084 3083 3088 3090 3093 3094 3095 3095 3094 3094 3095 3095 3094 3094 3092 3091 3090 3088 3086 3085 3083 3081 3078 3076 3074 3072 3070 3069 3068 3066
3069 3075 3076 3076 3077 3081 3084 3083 3087 3087 3089 3089 3090 3075 3081 3081 3083 3085 3086 3087 3088 3088 3088 3088 3088 3088 3088 3088 3086 3083 3082 3080 3078 3076 3074 3072 3070 3067 3065 3063 3061 3059 3056 3054
3060 3064 3069 3072 3074 3072 3073 3077 3079 3083 3085 3082 3080 3066 3076 3075 3076 3079 3079 3080 3080 3080 3081 3081 3081 3081 3080 3079 3077 3076 3073 3071 3069 3067 3065 3063 3062 3059 3057 3055 3053 3050 3048 3046
3055 3057 3055 3053 3056 3064 3066 3068 3071 3075 3076 3066 3068 3061 3066 3067 3070 3071 3072 3073 3073 3074 3074 3074 3073 3073 3072 3071 3069 3068 3066 3064 3062 3060 3058 3056 3053 3051 3048 3046 3044 3042 3040 3038
3047 3046 3050 3048 3054 3057 3058 3060 3063 3066 3058 3061 3057 3060 3054 3060 3062 3062 3065 3064 3065 3065 3065 3066 3065 3064 3064 3062 3061 3060 3058 3057 3055 3052 3050 3048 3045 3043 3041 3039 3037 3035 3032 3030
3039 3040 3044 3042 3045 3048 3049 3053 3053 3048 3050 3054 3050 3048 3048 3050 3052 3050 3052 3053 3054 3056 3057 3057 3056 3056 3054 3053 3052 3051 3049 3048 3046 3044 3042 3039 3037 3035 3033 3031 3029 3026 3024 3021
3030 3033 3037 3034 3036 3040 3038 3036 3036 3041 3041 3039 3040 3034 3040 3039 3039 3041 3043 3044 3045 3045 3047 3047 3047 3046 3045 3044 3043 3041 3040 3039 3037 3036 3034 3031 3029 3027 3025 3023 3021 3018 3015 3012
3023 3025 3030 3028 3030 3025 3022 3026 3026 3026 3027 3030 3031 3030 3026 3029 3030 3031 3032 3032 3033 3035 3035 3035 3037 3037 3036 3035 3034 3032 3031 3029 3027 3026 3024 3022 3020 3018 3016 3013 3011 3007 3004 3001
3017 3019 3020 3019 3017 3016 3015 3013 3012 3010 3010 3017 3021 3018 3019 3022 3019 3016 3015 3018 3021 3022 3023 3025 3026 3026 3026 3025 3024 3022 3021 3019 3018 3016 3014 3012 3010 3008 3005 3002 3001 2996 2993 2989
3009 3011 3012 3008 3003 3002 3002 3007 3007 3009 3007 3007 3007 3010 3011 3010 3006 3001 3004 3007 3008 3010 3011 3013 3015 3015 3015 3015 3014 3012 3011 3010 3008 3006 3004 3002 2999 2999 2995 2990 2989 2985 2980 2976
2999 2998 2996 2998 2993 2993 2999 3000 3002 3003 3000 2998 3001 3002 3001 2996 2996 2996 2996 2996 2998 2999 3000 3002 3003 3004 3004 3004 3004 3002 3000 2999 2998 2996 2994 2993 2989 2987 2984 2980 2976 2973 2969 2964
2984 2988 2989 2991 2989 2990 2987 2991 2992 2991 2991 2991 2993 2993 2991 2990 2988 2988 2989 2987 2987 2988 2991 2992 2992 2994 2993 2995 2995 2992 2992 2990 2987 2985 2984 2980 2978 2975 2971 2967 2963 2959 2955 2950
2976 2971 2975 2977 2975 2977 2979 2978 2980 2979 2981 2984 2983 2983 2983 2983 2982 2981 2980 2979 2978 2978 2979 2981 2983 2985 2986 2985 2984 2983 2981 2979 2977 2976 2973 2970 2967 2963 2958 2954 2950 2945 2940 2935
2961 2964 2964 2967 2966 2967 2969 2969 2970 2971 2971 2973 2973 2974 2974 2974 2973 2972 2971 2970 2970 2970 2971 2973 2975 2976 2976 2975 2973 2972 2971 2970 2967 2965 2962 2959 2955 2951 2947 2942 2937 2932 2926 2921
2956 2957 2956 2954 2955 2956 2957 2958 2959 2960 2961 2960 2960 2963 2962 2961 2962 2962 2961 2961 2960 2962 2963 2965 2966 2967 2966 2965 2964 2962 2961 2959 2957 2955 2952 2948 2944 2940 2936 2931 2926 2920 2913 2906
2942 2943 2945 2942 2946 2946 2947 2949 2950 2949 2950 2949 2948 2948 2949 2950 2951 2951 2951 2952 2953 2954 2955 2957 2957 2957 2956 2955 2953 2952 2950 2948 2946 2943 2940 2936 2932 2927 2922 2917 2912 2906 2900 2894
Wind_Speed
27 31 35 32 30 27 21 23 21 20 18 21 25 29 32 31 34 33 31 28 27 26 29 32 33 32 31 31 31 31 30 30 30 30 31 33 33 35 33 32 32 36 37 33
28 34 30 30 28 28 28 23 19 19 19 22 25 31 35 35 35 32 30 27 26 29 31 32 32 31 30 30 31 32 32 32 32 31 30 31 32 31 32 33 33 34 38 36
31 19 31 30 30 29 27 26 20 20 21 23 27 31 26 31 30 28 24 23 28 31 30 28 28 28 28 29 29 29 29 31 32 32 30 30 31 32 32 34 35 34 37 40
27 28 19 28 30 29 23 25 21 19 15 8 7 11 17 20 23 21 18 18 25 26 26 27 27 29 29 30 30 30 30 29 27 29 31 31 32 34 36 36 36 36 37 40
22 27 29 26 31 27 18 18 19 18 19 18 19 10 13 10 12 20 20 20 22 29 29 26 27 29 30 30 31 32 33 32 32 31 26 27 30 32 33 34 34 33 36 39
31 20 23 36 28 19 22 19 16 13 11 13 22 18 18 21 22 19 22 28 24 19 22 27 28 28 30 32 32 30 28 28 29 30 29 26 28 31 32 33 34 34 34 35
28 33 21 19 23 22 23 20 6 7 7 9 10 19 35 11 9 13 20 22 18 22 23 21 24 25 25 25 25 24 24 24 24 26 27 26 26 26 26 27 29 30 32 33
22 12 35 29 27 26 33 29 11 7 7 6 15 17 14 11 19 23 24 25 25 24 26 26 25 26 23 21 21 21 19 20 20 22 24 24 25 26 26 23 22 25 27 29
23 23 13 28 32 32 25 35 28 11 6 3 12 14 21 20 20 29 32 29 28 27 29 30 23 21 21 22 23 24 23 22 23 23 23 22 22 24 25 24 22 20 21 22
20 8 18 21 22 28 28 24 21 24 8 9 15 21 27 14 20 29 30 29 28 25 21 21 21 25 27 27 28 28 27 28 29 30 31 32 33 30 30 31 31 27 26 25
33 20 14 24 33 34 35 30 22 20 24 9 8 14 22 24 23 20 23 28 28 27 26 25 26 27 29 31 31 31 33 34 33 34 35 35 38 41 42 42 40 40 40 37
49 24 21 30 23 32 35 34 38 23 15 25 27 32 21 12 14 17 19 20 20 24 26 28 28 25 24 27 30 32 33 34 36 35 35 35 35 35 33 34 35 36 39 43
46 27 13 12 24 28 36 38 34 38 23 24 17 31 31 32 31 32 33 31 30 27 27 27 27 28 29 25 25 27 30 31 33 34 34 34 34 33 34 34 33 34 35 34
33 35 36 32 29 28 32 36 43 39 28 41 37 48 44 36 35 29 24 25 25 26 30 31 28 32 30 28 27 26 28 29 29 30 31 32 32 32 32 31 31 31 31 30
37 32 40 48 36 30 28 33 40 43 53 39 47 42 54 46 46 45 36 35 35 34 34 32 35 35 32 31 28 26 27 28 29 30 31 32 32 32 30 27 25 24 23 23
37 34 31 38 38 45 40 30 36 44 49 49 53 51 54 49 46 46 46 42 40 37 38 41 37 35 35 33 29 30 29 29 29 29 31 32 32 30 27 24 23 23 23 24
45 46 31 31 41 32 30 47 52 43 44 50 49 58 45 51 53 49 45 42 40 39 38 37 37 39 37 34 32 32 29 29 29 29 30 31 30 28 26 25 26 27 28 30
38 43 39 31 25 17 39 44 47 50 54 52 55 52 44 51 51 51 50 48 45 42 41 40 39 39 37 35 35 33 30 29 29 30 30 29 29 30 29 29 30 32 34 36
33 34 29 30 31 31 21 36 44 47 52 49 48 44 40 45 52 47 41 45 47 45 42 40 41 39 38 37 38 32 31 32 33 33 32 32 32 32 33 34 35 37 39 41
34 36 38 18 13 15 33 34 45 28 31 38 43 41 41 39 45 38 39 40 40 41 41 40 40 39 38 40 34 32 33 34 35 35 34 35 35 36 36 37 39 41 44 46
31 35 34 36 20 13 32 25 22 20 30 34 38 33 24 41 43 39 35 35 34 34 38 39 38 38 40 34 33 33 33 35 36 36 36 36 36 37 38 39 42 44 46 49
40 24 25 24 17 17 38 26 32 43 43 37 35 28 23 25 21 24 28 31 33 34 33 34 36 38 34 33 32 33 35 36 37 37 37 37 38 40 41 42 44 47 50 53
30 43 38 27 25 30 35 35 26 24 29 36 37 37 32 30 28 32 36 36 34 33 34 35 35 33 32 32 33 34 36 37 37 38 38 38 39 41 43 45 47 49 52 55
35 39 39 37 41 41 37 38 42 45 41 41 38 40 35 34 33 34 35 36 35 33 32 32 32 32 31 32 34 35 36 36 36 37 38 39 41 42 44 46 49 52 54 56
37 33 34 40 39 40 40 44 45 42 39 37 39 41 39 39 39 38 37 36 32 31 31 31 31 31 32 32 34 34 35 35 36 37 38 40 41 43 45 47 48 50 51 52
45 42 39 39 36 35 37 39 39 38 39 37 40 38 34 38 38 35 35 32 27 26 28 29 29 30 31 33 34 34 34 35 36 36 37 39 42 44 47 48 48 47 48 47
Wind_Direction
222 216 217 224 229 228 239 242 246 246 246 253 258 263 258 260 263 264 267 272 274 273 266 267 269 272 275 279 283 284 284 284 283 281 278 277 277 274 268 273 272 262 263 262
219 227 229 233 234 239 241 242 244 251 256 265 269 271 267 259 265 267 267 269 268 264 264 266 269 273 276 277 278 279 278 279 281 283 285 284 278 274 272 275 275 271 260 261
221 235 232 231 231 229 236 240 244 255 262 271 280 283 280 269 264 264 262 256 254 256 261 265 270 273 274 274 274 277 280 279 278 280 282 285 283 281 279 274 273 271 262 255
228 226 230 224 228 228 227 240 239 250 263 260 300 290 266 260 256 252 253 240 242 250 259 265 267 271 273 274 276 277 279 283 286 283 277 278 279 277 277 275 273 270 268 260
214 226 220 215 218 215 222 235 243 252 258 270 258 267 268 264 254 242 223 241 251 259 259 263 267 270 274 278 281 283 284 286 286 287 289 278 274 275 277 279 278 276 274 272
223 234 221 232 233 224 232 230 239 240 246 255 243 227 259 235 239 256 243 240 238 239 260 264 264 269 276 280 284 287 288 288 288 291 292 289 278 276 279 279 279 281 280 277
228 230 229 229 221 216 213 189 192 205 205 244 223 216 238 226 234 222 195 207 243 271 257 263 275 280 283 286 289 290 288 285 284 285 290 290 285 282 282 281 278 276 275 274
206 213 222 219 215 202 207 197 187 203 213 233 213 227 244 250 221 218 222 246 263 251 266 275 275 283 280 275 271 268 269 269 271 274 278 280 279 276 274 275 279 278 276 277
205 220 226 220 222 213 208 214 215 248 239 248 223 246 254 253 228 221 229 244 248 253 266 272 266 264 263 265 267 268 271 272 272 273 277 277 280 281 280 276 272 270 274 277
218 208 224 223 212 215 217 220 202 215 225 234 241 247 240 226 241 231 242 245 249 255 250 241 248 263 263 262 263 267 273 278 282 281 284 284 284 279 284 287 283 276 273 273
217 216 215 208 214 212 210 215 213 221 225 230 252 247 255 252 237 219 246 247 251 252 257 252 247 252 255 264 272 276 276 276 281 283 284 283 282 281 281 281 283 280 280 278
220 222 225 219 220 223 227 221 209 207 211 233 249 257 259 245 209 224 260 252 250 254 250 249 247 250 262 275 276 275 277 276 278 280 280 280 280 282 286 286 286 285 286 281
213 214 210 221 231 229 223 219 222 221 235 226 222 256 257 255 264 263 265 267 266 254 248 250 253 263 284 277 275 277 278 278 277 279 281 283 284 286 286 287 289 288 289 290
217 217 219 227 231 230 226 225 226 221 226 235 233 248 253 256 260 261 259 262 257 258 251 255 260 274 277 281 279 285 280 278 281 284 286 289 291 293 294 294 293 292 293 294
216 220 229 238 238 241 242 231 232 226 233 231 246 245 261 264 266 268 264 260 265 263 253 251 272 274 275 282 281 286 275 275 279 281 284 287 289 291 290 289 287 288 290 294
220 229 234 240 246 243 242 241 240 245 247 244 251 253 263 270 265 262 267 266 264 258 257 263 271 269 275 280 276 286 276 275 278 280 281 283 286 287 286 284 283 284 288 292
226 230 229 240 253 248 238 244 242 239 241 245 240 257 268 267 262 262 266 270 273 268 267 267 262 269 276 277 276 286 273 274 277 278 279 281 279 280 279 278 280 284 288 291
238 228 231 238 248 233 249 255 251 249 251 254 253 262 265 268 272 270 268 268 268 267 265 263 263 270 270 273 281 280 274 278 280 283 283 279 274 274 277 280 281 284 290 295
228 230 228 231 236 246 256 253 249 244 248 249 255 256 272 270 265 264 259 258 259 260 260 259 263 266 267 269 280 272 276 281 285 287 285 279 276 276 278 281 286 291 295 298
230 231 231 214 227 237 251 268 259 255 244 259 252 258 273 263 259 257 260 260 262 261 260 260 262 260 262 273 267 270 276 281 287 288 284 280 279 281 282 285 289 293 297 299
216 225 229 251 265 259 259 256 288 233 252 278 270 265 276 264 259 262 261 265 263 261 257 256 255 257 266 262 266 271 277 283 284 282 280 279 280 282 285 289 292 295 297 298
227 212 223 236 241 255 268 259 247 273 285 275 271 272 272 272 259 267 270 266 260 257 252 248 252 258 255 260 266 275 281 283 281 279 278 279 282 286 289 292 295 297 298 300
228 230 230 228 246 264 273 273 268 266 264 267 272 273 274 251 266 263 262 264 260 254 249 249 246 248 254 262 271 278 279 279 278 278 280 283 287 291 294 297 299 300 301 302
241 244 243 245 250 261 261 264 269 276 278 275 270 270 265 261 261 262 259 255 253 247 241 239 242 249 258 267 274 276 276 276 277 281 284 288 292 296 298 301 302 303 304 304
252 253 256 261 266 266 265 265 264 271 274 276 272 261 261 263 259 257 255 247 237 233 235 242 249 256 265 271 272 273 274 276 279 283 287 291 295 298 301 303 304 304 304 304
250 253 253 257 270 274 276 274 273 271 266 267 261 262 269 262 260 252 246 238 231 241 248 252 258 266 271 273 273 274 278 282 286 291 294 298 301 303 304 304 305 305 304 304